Location: Campillo
(40.8621°N, 4.2488°W)
Time: 18:28:31
(UTC+00:00)

USA 245 - Pass Details

Date: 30 September 2021
Orbit: 268 x 1011 km, 97.9° (Epoch: 25 October)

Event Time Altitude Azimuth Distance (km) Brightness Sun altitude
Exits shadow 21:28:03 15° 351° (N) 1,977 6.5 -38.1°
Drops below altitude 10° 21:28:59 10° 350° (N) 2,348 6.9 -38.2°
Sets 21:31:36 0° 350° (N) 3,398 7.9 -38.6°
